Powrót do katalogu

OV1-19

AktywnyNaukaHEO
NORAD 3825·PAYLOAD·🇺🇸 United States

Wystrzelony Mar 18, 1969 z Vandenberg Space Force Base

Loading…

Następne Przeloty (najbliższe 24 godziny)

TLE

ŚwieżeSource: Space-Track

Epoka: Sep 13, 2026, 05:28 UTC

1  3825U 69025C   26256.22806252  .00000147  00000-0  93811-4 0  9996
2  3825 104.7639 354.6745 2676125 314.5399  26.5316  9.58514501993683

Śledź OV1-19 w czasie rzeczywistym z AllMySat

Download on the App Store